Regional Weather Roundup
Issued by NWS Austin/San Antonio, TX

Current Version | Previous Version | Text Only | Print | Product List | Glossary On
Versions: 1 2 3 4 5 6 7 8 9 10 11 12 13 14 15 16 17 18 19 20 21 22 23 24 25 26 27 28 29 30 31 32 33 34 35 36 37 38 39 40 41 42 43 44 45 46 47 48 49 50
000
ASUS44 KEWX 300213
RWREWX
SOUTH TEXAS REGIONAL WEATHER ROUNDUP
NATIONAL WEATHER SERVICE AUSTIN/SAN ANTONIO TX
900 PM CDT THU SEP 29 2022

NOTE: "FAIR" INDICATED FEW OR NO CLOUDS BELOW 12,000 FEET WITH NO
SIGNIFICANT WEATHER AND/OR OBSTRUCTIONS TO VISIBILITY.

* - THESE STATIONS ARE NOT NWS OR FAA STATIONS...AND ARE NOT SUBJECT
    TO NWS AND FAA QUALITY CONTROL.

TXZ171-172-183>190-300300-
TEXAS HILL COUNTRY AND EDWARDS PLATEAU

CITY           SKY/WX    TMP DP  RH WIND       PRES   REMARKS
JUNCTION       CLEAR     76  48  37 CALM      30.11R
*LLANO         PTCLDY    73  46  38 CALM      30.06S
BURNET         CLEAR     77  49  37 MISG      30.09R
*HORSESHOE BAY CLEAR     74  45  35 CALM      30.07S
*LAGO VISTA      N/A     77  48  36 SE5       30.09R
*KERRVILLE     CLEAR     75  48  38 CALM      30.11R
*FREDERICKSBRG CLEAR     69  48  46 CALM      30.11R
*ROCKSPRINGS   CLEAR     72  48  43 SW6       30.19S
*BOERNE        CLEAR     72  46  40 CALM      30.10R
*CASTROVILLE   CLEAR     81  46  30 SW5       30.08R HAZE
HONDO          CLEAR     76  49  38 W7        30.07S
*UVALDE        CLEAR     74  50  42 CALM      30.10S
DEL RIO        CLEAR     78  50  37 SE5       30.08S
*LAUGHLIN AFB  CLEAR     79  48  33 S7        30.06S
*SPOFFORD      CLEAR     74  49  41 E6        30.08R
CARRIZO SPRGS  CLEAR     72  50  46 S3        30.07S
*FAITH RANCH   CLEAR     79  48  34 SE6       30.10R
$$

TXZ173-191>194-202-209-217>225-228-300300-
CENTRAL AND SOUTH CENTRAL TEXAS

CITY           SKY/WX    TMP DP  RH WIND       PRES   REMARKS
GEORGETOWN     CLEAR     79  49  34 SE3       30.08R
*TAYLOR        CLEAR     77  50  39 SE6       30.06R
AUSTIN/BERGSTM CLEAR     79  51  37 VRB3      30.05R
AUSTIN/MABRY   CLEAR     81  50  33 E5        30.06R
*PFLUGERVILLE  CLEAR     75  46  35 E6        30.05R
SAN MARCOS     CLEAR    N/A N/A N/A CALM        N/A
NEW BRAUNFELS  CLEAR     79  49  34 S6        30.04R
*RANDOLPH AFB  CLEAR     81  45  27 S6        30.03R
*SEGUIN        CLEAR     77  48  35 S3        30.03R
SAN ANTONIO    CLEAR     83  47  28 S8        30.06R
STINSON FIELD  CLEAR     80  50  34 S5        30.03S
*KELLY FIELD   CLEAR     78  48  34 S5        30.04R
*PLEASANTON    CLEAR     74  52  45 CALM      30.06S
*KENEDY        CLEAR     76  54  46 S3        30.06R
*LA GRANGE     NOT AVBL
*GIDDINGS      CLEAR     77  49  37 E5        30.07R
*GONZALES      CLEAR     78  52  39 SE5       30.05R
$$

TXZ163>164-176>182-195>201-210>213-226-227-235-300300-
SOUTHEAST TEXAS

CITY           SKY/WX    TMP DP  RH WIND       PRES   REMARKS
COLLEGE STN    CLEAR     78  47  33 NE8       30.07R
*BRYAN         CLEAR     73  48  41 E3        30.10R
*CALDWELL      CLEAR     75  50  40 E5        30.07R
*CROCKETT      CLEAR     68  43  40 NE6       30.10R
*BRENHAM       CLEAR     75  51  42 E3        30.08
HUNTSVILLE     CLEAR     70  49  47 CALM      30.08R
CONROE         CLEAR     63  54  72 CALM      30.08R
HOUSTON BUSH   CLEAR     75  50  41 NE6       30.06R
HOUSTON HOBBY  CLEAR     77  48  35 N6        30.05R
*HOUSTON SW AP NOT AVBL
PEARLAND       CLEAR     71  52  50 CALM      30.07R
HOUSTON HOOKS  CLEAR     69  51  52 MISG      30.07R
ELLINGTON FLD  CLEAR     75  46  35 N7        30.05R
SUGAR LAND     CLEAR     69  53  56 N3        30.06R
*HOUSTON EXEC  CLEAR     68  55  64 CALM      30.08R
*CLEVELAND MUN NOT AVBL
*WHARTON       CLEAR     69  48  46 CALM      30.07R
*COLUMBUS      FAIR      72  52  48 CALM      30.08R
*EAGLE LAKE    CLEAR     70  53  54 MISG      30.06S
$$

TXZ214>216-236>238-300300-
THE UPPER TEXAS COAST

CITY           SKY/WX    TMP DP  RH WIND       PRES   REMARKS
*ORANGE        CLEAR     69  45  42 NE5       30.09R
PORT ARTHUR    CLEAR     71  44  37 NE10      30.06R
GALVESTON      CLEAR     75  55  49 N7        30.06R
ANGLETON       CLEAR     64  54  69 CALM      30.06R
*BAY CITY      CLEAR     68  59  71 CALM      30.07R
PALACIOS       CLEAR     72  61  68 SE5       30.05S
$$

TXZ229>234-239>247-300300-
TEXAS COASTAL BEND AND RIO GRANDE PLAINS

CITY           SKY/WX    TMP DP  RH WIND       PRES   REMARKS
VICTORIA       CLEAR     74  60  61 S9        30.05R
*BEEVILLE      CLEAR     73  54  52 SE6       30.05S
ROCKPORT       CLEAR     71  62  73 S5        30.05S
*PORT ARANSAS  CLEAR    N/A N/A N/A CALM      30.07S
*PORT LAVACA   CLEAR     74  61  63 S6        30.06R
*INGLESIDE     CLEAR     74  64  73 S5        30.05S
CORPUS CHRISTI CLEAR     76  62  62 S6        30.05S
CORPUS NAS     CLEAR     77  63  61 SE6       30.05S
*ROBSTOWN      CLEAR     77  60  54 MISG      30.07R
ALICE          CLEAR     72  61  68 S6        30.06R
KINGSVILLE NAS CLEAR     71  64  78 S6        30.06S
COTULLA        CLEAR     78  52  40 S5        30.06S
LAREDO         CLEAR     80  55  42 E7        30.07R
$$

TXZ248>255-300300-
DEEP SOUTH TEXAS

CITY           SKY/WX    TMP DP  RH WIND       PRES   REMARKS
BROWNSVILLE    CLEAR     75  63  66 CALM      30.07R
PORT ISABEL    CLEAR     75  63  66 N5        30.07S
HARLINGEN      CLEAR     71  62  73 E6        30.06S
*HEBBRONVILLE  CLEAR     75  55  49 CALM      30.09S
MCALLEN        CLEAR     79  56  45 E8        30.07R
*WESLACO       CLEAR     76  60  56 E6        30.07S
FALFURRIAS     CLEAR     74  61  65 SE6       30.06R
EDINBURG       CLEAR     73  60  63 E5        30.07S
*ZAPATA        CLEAR     74  67  78 CALM      30.08R
$$

TXZ213>215-236>238-242>244-246-247-251-254-255-300300-
CMAN STATIONS

STATION/POSITION TIME  TEMP    WIND        PRES    WAVE
                       AIR SEA DIR/SP/G            HT/PER
                 (UTC) (F)     (DEG/KT/KT) (MB)    (FT/S)
SEA RIM ST PARK  0200   70      40/ 11/ 12 1018.2
NORTH JETTY/GLS  0130   76 79   80/  2/  3 1016.3
EAGLE POINT      0130   76 79  330/  3/  4 1017.0
MORGANS POINT    0130   76 81  360/  5/  7 1017.0
MISSION/ARANSAS  0100   80     180/  7     1018.0
PORT O`CONNOR    0130   78 88  120/  6/  7 1017.4
PORT ARANSAS     0200   80     150/  2/  3   N/A
BAFFIN BAY       0130   79 83  100/  4/  5 1018.1
PORT ISABEL      0130   80 81   20/  4/  7 1017.6
$$



USA.gov is the U.S. government's official web portal to all federal, state and local government web resources and services.